SCP
0 -0 -0 -0 -0 -1 -1 -1 -1 -1 -1 -1 -1 -0 -0 -0 -0 0 0 0 -0 -0 -0 0 0 0 0 -0 -0 -0 -0 -0 0 0 0 0 0 0 0 0 0 0 0
-0 -0 -0 -0 -0 -0 -1 -1 -1 -1 -1 -1 -1 -0 -0 -0 -0 -0 -0 -0 -0 0 0 -0 -0 -0 -0 -0 -0 -0 -0 0 0 0 0 0 0 0 0 0 0 0 0
-0 -0 -0 -0 -1 -0 -0 -1 -1 -1 -1 -1 -0 -0 -0 -0 -0 -0 0 0 -0 -0 -0 -0 -0 -0 -0 -0 -0 -0 -0 0 0 0 0 0 0 0 0 0 0 0 0
-0 -0 -0 -0 -1 -0 -0 -1 -0 -1 -1 -0 -0 -0 -0 -0 0 0 0 -0 -0 -0 -0 -0 -0 -0 -0 -0 -0 -0 -0 0 0 0 0 0 0 0 0 0 0 0 0
0 0 0 -0 -0 0 -0 -0 -1 -1 -0 -0 -0 0 0 0 0 0 0 0 -0 -0 -0 -0 0 0 -0 -0 -0 0 0 0 0 0 0 0 0 0 0 0 0 0 0
0 0 0 0 0 0 0 -0 -0 -0 -0 -0 0 0 0 0 0 0 0 0 0 0 0 -0 -0 -0 0 0 0 0 0 0 0 0 0 0 0 0 0 0 0 0 0
1 1 1 1 1 0 0 0 -0 -0 -0 -0 -0 0 0 0 0 0 0 0 0 0 0 -0 -0 -0 0 0 0 0 0 0 0 0 0 0 0 0 0 0 0 0 0
1 1 1 1 1 1 1 0 0 -0 -0 -0 -0 0 0 0 0 0 0 0 0 -0 -0 0 -0 0 0 0 0 0 0 0 0 0 0 0 0 0 0 1 1 0 0
1 1 1 1 1 1 1 0 0 0 0 0 0 0 0 0 0 0 0 0 -0 -0 0 0 0 0 0 0 0 0 0 0 0 0 0 0 0 0 0 1 1 0 0
1 2 1 1 1 1 1 1 0 0 0 0 0 0 -0 -0 0 0 0 -0 -0 -0 -0 0 0 0 0 0 0 -0 -0 -0 0 0 0 0 0 0 0 1 1 1 1
1 1 1 1 1 1 1 1 1 0 0 0 0 0 0 -0 -0 -0 -0 -0 -0 -0 -0 -0 -0 0 0 -0 -0 -0 -0 0 0 0 0 0 0 0 0 1 1 1 1
1 1 1 1 1 2 2 1 1 1 0 0 0 0 0 -0 -0 -0 -0 -0 -0 -0 -0 -0 -0 -0 -0 -0 -0 -0 0 0 0 0 0 0 0 0 0 0 1 1 1
1 1 1 1 1 2 2 2 2 2 1 1 0 0 0 0 -0 -0 -0 -0 -0 -0 -0 -0 -0 -0 -0 -0 -0 -0 -0 -0 0 0 0 0 0 0 0 0 1 1 1
1 1 2 2 2 2 2 2 2 3 2 1 1 0 0 0 0 -0 -0 -0 0 0 0 0 0 0 0 -0 -0 -0 -0 -0 0 0 0 0 0 0 0 0 1 1 1
1 1 2 2 2 2 2 3 2 2 2 1 1 0 0 0 0 0 0 0 0 0 0 0 0 0 0 0 0 0 0 0 0 0 0 0 0 0 0 0 1 1 1
1 1 1 2 3 2 4 3 3 2 2 2 1 1 1 0 0 0 0 0 0 0 0 0 0 0 0 0 0 0 0 0 0 0 0 0 0 0 0 0 1 1 1
1 1 1 1 2 2 2 3 3 2 3 2 2 1 1 1 0 0 0 0 0 0 0 0 0 0 0 0 0 0 0 0 0 0 0 0 0 0 0 1 1 1 1
2 1 1 1 1 1 2 3 3 3 3 2 3 2 2 2 1 1 0 0 0 0 0 0 0 0 0 0 0 0 0 0 0 0 0 0 0 0 0 1 1 1 1
1 2 2 1 1 1 1 2 2 2 3 2 2 1 2 2 1 1 0 0 0 0 0 0 0 0 0 0 0 0 0 0 0 0 0 0 0 0 0 0 0 1 1
0 1 2 2 2 1 1 2 1 1 1 1 2 1 2 2 1 1 0 0 0 0 0 0 0 0 0 0 0 0 0 0 0 0 0 0 0 0 0 0 0 0 0
0 0 1 3 3 3 2 2 2 2 1 2 1 1 1 1 2 1 1 1 0 0 1 1 1 1 0 0 0 0 0 0 0 0 0 0 0 -0 -0 0 0 0 0
0 0 0 2 3 3 4 3 4 3 3 2 2 1 1 1 1 2 2 1 1 1 0 1 1 1 0 0 0 0 0 0 0 0 0 0 -0 -0 -0 0 0 0 0
0 0 0 1 2 4 5 5 4 5 3 3 2 2 1 2 2 2 2 3 0 -0 2 1 2 1 2 0 0 0 0 0 0 0 0 0 0 -0 -0 0 0 0 0
0 0 0 1 1 4 6 7 6 6 7 4 4 4 2 2 3 3 3 3 1 2 2 1 2 1 0 1 0 0 0 0 0 0 0 0 0 0 -0 0 0 0 1
0 0 0 0 0 1 5 6 6 6 5 3 3 3 2 2 2 2 3 4 3 2 2 1 2 2 1 2 1 0 0 0 0 0 0 0 0 0 -0 -0 0 0 1
0 0 0 0 0 0 1 2 4 5 3 3 2 2 3 2 2 2 2 2 1 1 2 2 2 2 1 1 2 1 1 1 1 1 0 0 0 0 -0 -0 0 0 0
Wind_Speed_500mb
57 60 59 57 54 51 47 44 43 49 52 53 47 42 35 29 28 31 32 32 32 31 28 27 26 25 24 23 23 24 25 28 29 30 31 30 30 28 25 23 19 17 17
56 65 63 60 56 52 49 46 44 47 53 53 48 42 34 29 31 32 32 32 31 31 29 28 26 25 24 24 23 24 24 22 23 24 25 25 25 29 27 27 25 21 18
53 63 63 61 57 53 49 46 46 50 52 51 46 40 33 31 33 34 34 33 32 31 29 28 25 23 22 21 21 21 20 19 17 17 17 20 23 26 30 28 27 26 22
56 63 65 61 58 54 49 47 47 48 51 48 43 38 35 34 36 36 35 33 31 30 28 26 23 21 19 17 15 15 14 11 11 13 15 17 19 22 25 28 27 26 25
57 61 64 62 58 54 51 47 50 49 50 49 44 40 38 38 38 37 35 33 30 28 27 25 23 20 18 14 12 10 8 7 7 9 11 14 12 14 20 24 25 27 26
50 55 61 60 57 54 52 50 53 53 52 52 49 46 44 41 39 37 35 32 29 26 25 23 21 19 16 13 9 7 4 3 3 5 8 11 11 10 14 18 21 22 26
51 54 58 60 58 54 52 52 55 56 57 56 54 52 48 44 41 38 34 30 27 22 20 19 18 15 13 10 7 4 3 4 7 9 11 10 12 8 9 12 16 18 20
44 53 59 60 58 55 53 54 55 58 62 62 61 57 52 48 44 39 34 30 25 21 18 15 14 12 9 8 6 3 3 6 9 12 14 13 16 8 9 11 15 17 19
43 51 58 61 61 56 56 56 57 60 62 65 64 60 56 51 45 40 35 30 25 20 17 13 12 9 6 3 2 0 2 4 7 9 12 14 11 7 8 10 14 18 20
44 52 59 62 64 63 60 59 58 59 62 62 62 60 56 53 47 42 35 30 25 20 16 12 8 5 4 1 3 4 5 6 4 8 11 8 7 8 8 13 17 19 18
54 56 60 64 67 66 65 64 61 59 58 61 61 60 56 53 49 43 37 31 24 19 15 11 7 4 3 3 5 6 6 6 5 8 10 10 8 9 12 18 21 20 18
58 61 64 67 70 71 70 70 69 66 64 64 63 62 57 52 48 43 38 33 27 23 18 14 11 9 8 8 5 1 4 3 3 7 9 12 13 15 16 17 19 18 19
51 61 65 70 74 76 78 76 75 74 71 67 63 61 58 54 50 45 40 35 30 26 20 17 14 11 8 8 5 3 2 2 4 5 6 10 12 14 16 15 14 16 17
55 63 71 73 76 79 82 83 82 80 77 73 70 65 61 58 54 48 44 37 32 28 22 18 14 8 8 6 5 3 1 6 6 10 12 13 12 12 11 13 14 17 16
55 62 68 76 79 81 84 86 87 87 85 81 75 70 67 62 56 52 48 42 37 31 25 21 18 13 10 11 9 9 9 13 18 15 17 18 16 15 15 12 15 18 17
52 54 62 74 79 84 81 85 87 87 87 84 79 74 68 64 60 55 51 48 43 37 29 23 22 22 20 20 17 17 15 17 22 28 27 24 19 18 22 19 16 17 19
41 38 43 56 65 75 79 79 83 87 89 87 83 77 72 69 64 62 59 56 49 43 36 33 29 27 26 26 23 21 23 24 28 30 32 34 30 25 26 26 22 18 19
52 52 47 48 51 61 69 72 78 83 88 89 85 80 75 71 67 63 61 60 54 48 43 41 37 36 33 32 30 28 28 27 31 35 42 41 36 32 35 34 29 21 21
65 67 64 60 60 59 67 73 76 76 80 82 80 76 70 70 68 67 67 63 60 54 49 47 45 44 42 38 35 33 32 30 31 33 45 35 30 33 34 35 34 26 22
74 78 81 66 65 63 68 77 79 79 79 77 73 62 71 59 64 69 69 69 67 63 57 52 52 42 44 37 40 40 40 35 35 32 25 24 31 34 38 41 31 28 26
65 84 89 77 73 72 72 77 78 78 77 76 63 60 67 66 62 56 58 73 72 68 60 50 40 38 37 38 40 42 38 37 33 19 30 20 23 40 52 58 49 37 30
64 72 95 87 85 76 75 77 83 82 77 70 62 63 51 63 82 75 60 50 61 65 68 52 33 37 30 37 35 37 29 38 31 30 27 36 58 65 67 63 47 44 38
70 71 85 94 89 86 82 81 83 81 71 65 62 60 60 62 60 64 78 87 95 71 69 59 37 28 29 39 39 30 14 13 46 43 43 42 73 77 71 72 66 49 37
67 77 80 90 93 89 82 81 84 84 80 70 68 64 59 61 63 66 72 78 84 74 82 70 42 32 26 34 35 44 37 26 25 38 36 45 46 59 69 75 70 48 47
54 61 71 86 91 88 82 82 78 75 72 70 69 68 68 62 59 66 59 67 71 69 70 59 78 41 55 51 42 34 44 51 48 39 49 38 67 71 79 80 82 64 48
56 60 65 75 84 80 77 74 70 68 66 65 65 66 65 64 62 59 66 71 78 79 76 78 71 68 91 104 88 76 73 77 67 67 72 72 72 83 77 81 80 67 47
Wind_Direction_500mb
175 174 171 170 172 174 175 172 167 159 158 160 161 160 156 150 140 138 139 137 134 134 129 121 118 114 110 107 105 105 107 101 96 88 77 72 69 69 59 49 47 52 52
175 174 174 174 175 177 176 174 171 164 163 163 165 164 161 151 143 143 138 135 132 128 126 121 114 110 109 109 109 111 110 102 90 84 78 77 67 61 58 48 40 40 42
181 174 177 177 177 177 178 177 175 170 166 167 169 169 163 155 150 145 141 139 135 130 124 121 119 115 109 107 106 105 104 99 92 86 78 64 58 57 49 46 39 36 28
182 175 179 180 180 179 180 180 177 175 175 175 177 175 166 160 155 149 145 140 136 130 126 121 119 114 108 103 103 102 101 90 76 66 61 52 51 52 49 42 39 27 23
183 178 179 181 183 183 184 184 180 178 178 179 180 175 169 165 159 153 148 145 139 136 133 130 124 115 103 96 92 90 96 85 67 45 46 40 37 44 47 42 37 26 18
185 182 181 183 186 188 187 186 181 178 179 179 179 174 171 168 163 159 153 149 146 144 141 134 126 116 106 99 86 80 59 29 351 348 360 21 20 18 35 35 28 23 15
186 186 186 185 189 191 191 188 183 180 177 177 176 173 172 171 167 163 159 154 151 148 145 137 128 125 121 112 104 75 22 322 305 309 318 335 360 6 6 14 13 5 359
192 191 189 188 191 194 193 191 186 180 175 173 173 174 175 173 170 168 165 161 158 158 154 149 137 135 133 124 114 86 348 323 318 312 308 293 315 341 350 351 346 340 335
197 198 194 192 192 196 195 192 187 182 178 174 176 177 178 176 175 173 173 169 168 170 165 162 148 137 125 120 127 147 284 305 309 315 310 293 298 307 337 334 328 320 318
201 204 200 197 196 197 197 194 191 187 183 181 181 182 182 180 180 179 179 178 178 179 179 175 162 151 146 95 316 283 280 284 283 319 333 317 277 275 291 309 310 306 304
205 207 206 203 200 201 199 196 195 194 192 189 188 188 189 187 185 186 184 185 187 190 198 200 202 213 262 305 301 311 295 277 268 301 312 312 291 287 298 308 312 305 289
208 207 209 208 206 203 203 201 198 198 198 197 195 194 194 194 193 192 193 192 194 201 210 223 236 251 263 265 271 359 13 358 294 308 305 298 300 300 303 308 308 306 284
213 210 211 212 209 206 206 205 204 202 203 202 202 202 198 200 200 200 200 203 203 212 220 238 258 269 247 237 193 136 79 33 15 323 311 299 296 302 309 313 310 306 297
217 212 215 214 212 211 210 209 209 208 207 207 206 206 206 204 206 207 209 210 214 222 230 247 256 251 178 174 183 181 2 316 339 333 318 303 300 304 318 323 318 327 315
226 220 219 218 215 214 215 214 214 213 214 212 212 210 210 212 213 213 216 218 222 229 239 249 247 241 222 215 239 263 287 306 315 319 316 309 310 314 311 315 318 323 334
229 229 224 220 218 216 220 222 221 221 221 219 217 218 217 218 218 221 225 228 227 230 237 247 246 249 249 247 254 276 294 301 307 315 312 310 313 318 314 303 298 309 326
222 220 222 221 224 224 223 226 227 226 228 227 226 224 224 226 226 226 225 230 235 239 239 244 247 253 260 264 265 279 286 293 304 311 313 316 316 320 319 301 286 287 295
235 230 226 214 213 220 226 228 231 233 234 234 229 228 227 230 234 237 239 240 239 240 248 253 256 259 260 267 275 277 281 291 307 320 318 316 309 310 318 304 283 278 285
246 242 235 224 221 215 221 226 229 234 237 237 233 236 235 238 238 239 244 248 249 245 244 250 256 260 262 268 276 279 282 289 301 323 340 331 314 308 323 319 286 272 276
248 242 233 228 227 224 224 226 229 231 235 236 235 228 230 252 254 253 251 250 248 248 243 243 250 258 271 270 278 279 284 287 301 323 3 358 352 336 339 339 315 295 290
252 236 226 228 227 221 225 224 227 230 232 233 228 217 221 222 247 262 261 255 254 256 250 244 251 255 267 282 289 288 293 293 303 321 341 349 356 355 355 343 324 316 312
255 241 225 227 225 225 225 226 227 229 231 232 228 213 216 233 242 240 246 262 265 259 256 238 228 251 272 282 288 298 305 295 305 312 343 6 356 349 339 338 331 327 314
250 246 230 227 226 225 226 225 226 228 231 229 230 225 226 231 236 240 247 242 259 263 259 247 225 250 279 285 288 285 304 299 311 307 318 290 284 301 324 324 321 321 307
260 244 232 226 227 225 227 226 226 228 228 228 233 237 243 241 242 246 239 234 238 224 235 248 234 235 248 269 290 289 284 289 300 308 313 328 325 295 327 330 323 309 314
283 259 242 230 224 223 224 225 225 228 231 233 238 241 245 243 245 243 242 241 242 238 256 247 255 253 253 263 271 277 288 288 289 275 289 291 314 314 320 321 324 313 306
265 264 254 227 221 219 219 220 223 227 231 239 242 244 242 241 243 246 241 239 243 250 256 249 256 253 255 266 260 258 260 271 281 282 285 287 294 301 309 315 321 322 310
Wind_Speed_850mb
57 60 59 57 54 51 47 44 43 49 52 53 47 42 35 29 28 31 32 32 32 31 28 27 26 25 24 23 23 24 25 28 29 30 31 30 30 28 25 23 19 17 17
56 65 63 60 56 52 49 46 44 47 53 53 48 42 34 29 31 32 32 32 31 31 29 28 26 25 24 24 23 24 24 22 23 24 25 25 25 29 27 27 25 21 18
53 63 63 61 57 53 49 46 46 50 52 51 46 40 33 31 33 34 34 33 32 31 29 28 25 23 22 21 21 21 20 19 17 17 17 20 23 26 30 28 27 26 22
56 63 65 61 58 54 49 47 47 48 51 48 43 38 35 34 36 36 35 33 31 30 28 26 23 21 19 17 15 15 14 11 11 13 15 17 19 22 25 28 27 26 25
57 61 64 62 58 54 51 47 50 49 50 49 44 40 38 38 38 37 35 33 30 28 27 25 23 20 18 14 12 10 8 7 7 9 11 14 12 14 20 24 25 27 26
50 55 61 60 57 54 52 50 53 53 52 52 49 46 44 41 39 37 35 32 29 26 25 23 21 19 16 13 9 7 4 3 3 5 8 11 11 10 14 18 21 22 26
51 54 58 60 58 54 52 52 55 56 57 56 54 52 48 44 41 38 34 30 27 22 20 19 18 15 13 10 7 4 3 4 7 9 11 10 12 8 9 12 16 18 20
44 53 59 60 58 55 53 54 55 58 62 62 61 57 52 48 44 39 34 30 25 21 18 15 14 12 9 8 6 3 3 6 9 12 14 13 16 8 9 11 15 17 19
43 51 58 61 61 56 56 56 57 60 62 65 64 60 56 51 45 40 35 30 25 20 17 13 12 9 6 3 2 0 2 4 7 9 12 14 11 7 8 10 14 18 20
44 52 59 62 64 63 60 59 58 59 62 62 62 60 56 53 47 42 35 30 25 20 16 12 8 5 4 1 3 4 5 6 4 8 11 8 7 8 8 13 17 19 18
54 56 60 64 67 66 65 64 61 59 58 61 61 60 56 53 49 43 37 31 24 19 15 11 7 4 3 3 5 6 6 6 5 8 10 10 8 9 12 18 21 20 18
58 61 64 67 70 71 70 70 69 66 64 64 63 62 57 52 48 43 38 33 27 23 18 14 11 9 8 8 5 1 4 3 3 7 9 12 13 15 16 17 19 18 19
51 61 65 70 74 76 78 76 75 74 71 67 63 61 58 54 50 45 40 35 30 26 20 17 14 11 8 8 5 3 2 2 4 5 6 10 12 14 16 15 14 16 17
55 63 71 73 76 79 82 83 82 80 77 73 70 65 61 58 54 48 44 37 32 28 22 18 14 8 8 6 5 3 1 6 6 10 12 13 12 12 11 13 14 17 16
55 62 68 76 79 81 84 86 87 87 85 81 75 70 67 62 56 52 48 42 37 31 25 21 18 13 10 11 9 9 9 13 18 15 17 18 16 15 15 12 15 18 17
52 54 62 74 79 84 81 85 87 87 87 84 79 74 68 64 60 55 51 48 43 37 29 23 22 22 20 20 17 17 15 17 22 28 27 24 19 18 22 19 16 17 19
41 38 43 56 65 75 79 79 83 87 89 87 83 77 72 69 64 62 59 56 49 43 36 33 29 27 26 26 23 21 23 24 28 30 32 34 30 25 26 26 22 18 19
52 52 47 48 51 61 69 72 78 83 88 89 85 80 75 71 67 63 61 60 54 48 43 41 37 36 33 32 30 28 28 27 31 35 42 41 36 32 35 34 29 21 21
65 67 64 60 60 59 67 73 76 76 80 82 80 76 70 70 68 67 67 63 60 54 49 47 45 44 42 38 35 33 32 30 31 33 45 35 30 33 34 35 34 26 22
74 78 81 66 65 63 68 77 79 79 79 77 73 62 71 59 64 69 69 69 67 63 57 52 52 42 44 37 40 40 40 35 35 32 25 24 31 34 38 41 31 28 26
65 84 89 77 73 72 72 77 78 78 77 76 63 60 67 66 62 56 58 73 72 68 60 50 40 38 37 38 40 42 38 37 33 19 30 20 23 40 52 58 49 37 30
64 72 95 87 85 76 75 77 83 82 77 70 62 63 51 63 82 75 60 50 61 65 68 52 33 37 30 37 35 37 29 38 31 30 27 36 58 65 67 63 47 44 38
70 71 85 94 89 86 82 81 83 81 71 65 62 60 60 62 60 64 78 87 95 71 69 59 37 28 29 39 39 30 14 13 46 43 43 42 73 77 71 72 66 49 37
67 77 80 90 93 89 82 81 84 84 80 70 68 64 59 61 63 66 72 78 84 74 82 70 42 32 26 34 35 44 37 26 25 38 36 45 46 59 69 75 70 48 47
54 61 71 86 91 88 82 82 78 75 72 70 69 68 68 62 59 66 59 67 71 69 70 59 78 41 55 51 42 34 44 51 48 39 49 38 67 71 79 80 82 64 48
56 60 65 75 84 80 77 74 70 68 66 65 65 66 65 64 62 59 66 71 78 79 76 78 71 68 91 104 88 76 73 77 67 67 72 72 72 83 77 81 80 67 47
Wind_Direction_850mb
175 174 171 170 172 174 175 172 167 159 158 160 161 160 156 150 140 138 139 137 134 134 129 121 118 114 110 107 105 105 107 101 96 88 77 72 69 69 59 49 47 52 52
175 174 174 174 175 177 176 174 171 164 163 163 165 164 161 151 143 143 138 135 132 128 126 121 114 110 109 109 109 111 110 102 90 84 78 77 67 61 58 48 40 40 42
181 174 177 177 177 177 178 177 175 170 166 167 169 169 163 155 150 145 141 139 135 130 124 121 119 115 109 107 106 105 104 99 92 86 78 64 58 57 49 46 39 36 28
182 175 179 180 180 179 180 180 177 175 175 175 177 175 166 160 155 149 145 140 136 130 126 121 119 114 108 103 103 102 101 90 76 66 61 52 51 52 49 42 39 27 23
183 178 179 181 183 183 184 184 180 178 178 179 180 175 169 165 159 153 148 145 139 136 133 130 124 115 103 96 92 90 96 85 67 45 46 40 37 44 47 42 37 26 18
185 182 181 183 186 188 187 186 181 178 179 179 179 174 171 168 163 159 153 149 146 144 141 134 126 116 106 99 86 80 59 29 351 348 360 21 20 18 35 35 28 23 15
186 186 186 185 189 191 191 188 183 180 177 177 176 173 172 171 167 163 159 154 151 148 145 137 128 125 121 112 104 75 22 322 305 309 318 335 360 6 6 14 13 5 359
192 191 189 188 191 194 193 191 186 180 175 173 173 174 175 173 170 168 165 161 158 158 154 149 137 135 133 124 114 86 348 323 318 312 308 293 315 341 350 351 346 340 335
197 198 194 192 192 196 195 192 187 182 178 174 176 177 178 176 175 173 173 169 168 170 165 162 148 137 125 120 127 147 284 305 309 315 310 293 298 307 337 334 328 320 318
201 204 200 197 196 197 197 194 191 187 183 181 181 182 182 180 180 179 179 178 178 179 179 175 162 151 146 95 316 283 280 284 283 319 333 317 277 275 291 309 310 306 304
205 207 206 203 200 201 199 196 195 194 192 189 188 188 189 187 185 186 184 185 187 190 198 200 202 213 262 305 301 311 295 277 268 301 312 312 291 287 298 308 312 305 289
208 207 209 208 206 203 203 201 198 198 198 197 195 194 194 194 193 192 193 192 194 201 210 223 236 251 263 265 271 359 13 358 294 308 305 298 300 300 303 308 308 306 284
213 210 211 212 209 206 206 205 204 202 203 202 202 202 198 200 200 200 200 203 203 212 220 238 258 269 247 237 193 136 79 33 15 323 311 299 296 302 309 313 310 306 297
217 212 215 214 212 211 210 209 209 208 207 207 206 206 206 204 206 207 209 210 214 222 230 247 256 251 178 174 183 181 2 316 339 333 318 303 300 304 318 323 318 327 315
226 220 219 218 215 214 215 214 214 213 214 212 212 210 210 212 213 213 216 218 222 229 239 249 247 241 222 215 239 263 287 306 315 319 316 309 310 314 311 315 318 323 334
229 229 224 220 218 216 220 222 221 221 221 219 217 218 217 218 218 221 225 228 227 230 237 247 246 249 249 247 254 276 294 301 307 315 312 310 313 318 314 303 298 309 326
222 220 222 221 224 224 223 226 227 226 228 227 226 224 224 226 226 226 225 230 235 239 239 244 247 253 260 264 265 279 286 293 304 311 313 316 316 320 319 301 286 287 295
235 230 226 214 213 220 226 228 231 233 234 234 229 228 227 230 234 237 239 240 239 240 248 253 256 259 260 267 275 277 281 291 307 320 318 316 309 310 318 304 283 278 285
246 242 235 224 221 215 221 226 229 234 237 237 233 236 235 238 238 239 244 248 249 245 244 250 256 260 262 268 276 279 282 289 301 323 340 331 314 308 323 319 286 272 276
248 242 233 228 227 224 224 226 229 231 235 236 235 228 230 252 254 253 251 250 248 248 243 243 250 258 271 270 278 279 284 287 301 323 3 358 352 336 339 339 315 295 290
252 236 226 228 227 221 225 224 227 230 232 233 228 217 221 222 247 262 261 255 254 256 250 244 251 255 267 282 289 288 293 293 303 321 341 349 356 355 355 343 324 316 312
255 241 225 227 225 225 225 226 227 229 231 232 228 213 216 233 242 240 246 262 265 259 256 238 228 251 272 282 288 298 305 295 305 312 343 6 356 349 339 338 331 327 314
250 246 230 227 226 225 226 225 226 228 231 229 230 225 226 231 236 240 247 242 259 263 259 247 225 250 279 285 288 285 304 299 311 307 318 290 284 301 324 324 321 321 307
260 244 232 226 227 225 227 226 226 228 228 228 233 237 243 241 242 246 239 234 238 224 235 248 234 235 248 269 290 289 284 289 300 308 313 328 325 295 327 330 323 309 314
283 259 242 230 224 223 224 225 225 228 231 233 238 241 245 243 245 243 242 241 242 238 256 247 255 253 253 263 271 277 288 288 289 275 289 291 314 314 320 321 324 313 306
265 264 254 227 221 219 219 220 223 227 231 239 242 244 242 241 243 246 241 239 243 250 256 249 256 253 255 266 260 258 260 271 281 282 285 287 294 301 309 315 321 322 310